This demonstration page uses our WeatherBlox Daily Observations layout. Learn more.

Left ArrowRight Arrow

Hourly Observations for February 22, 2016

Temp ( °F °C ) Dew Point ( °F °C ) Humidity (%) Winds ( mph kmh ) Pressure ( in mb ) Visibility ( mi km ) Precip ( " mm )
12:53 am 00:53 Clear 28 -2.2 22 -5.6 78 78 SW 14 22 30.04 1017 10 16 0.00 0.00
1:53 am 01:53 Clear 24 -4.4 20 -6.7 84 84 WNW 5 7 30.04 1017 10 16 0.00 0.00
2:53 am 02:53 Cloudy 28 -2.2 22 -5.6 78 78 WSW 6 9 30.02 1017 10 16 0.00 0.00
3:53 am 03:53 Cloudy 29 -1.7 24 -4.4 82 82 WSW 7 11 30.01 1016 10 16 0.00 0.00
4:53 am 04:53 Cloudy 32 0 23 -5 69 69 WSW 7 11 30.00 1016 10 16 0.00 0.00
5:53 am 05:53 Mostly Cloudy 32 0 22 -5.6 66 66 SW 15 24 30.01 1016 10 16 0.00 0.00
6:53 am 06:53 Clear 34 1.1 24 -4.4 67 67 WSW 14 22 30.03 1017 10 16 0.00 0.00
7:53 am 07:53 Sunny 35 1.7 23 -5 61 61 W 16 26 30.05 1018 10 16 0.00 0.00
8:53 am 08:53 Sunny 37 2.8 23 -5 57 57 W 14 22 30.06 1018 10 16 0.00 0.00
9:53 am 09:53 Sunny 40 4.4 20 -6.7 45 45 WNW 24 39 30.06 1018 10 16 0.00 0.00
10:53 am 10:53 Sunny 41 5 19 -7.2 41 41 WNW 26 43 30.07 1018 10 16 0.00 0.00
11:53 am 11:53 Sunny 41 5 18 -7.8 39 39 WNW 20 31 30.10 1019 10 16 0.00 0.00
12:53 pm 12:53 Sunny 43 6.1 17 -8.3 35 35 WNW 20 31 30.10 1019 10 16 0.00 0.00
1:53 pm 13:53 Sunny 46 7.8 15 -9.4 29 29 WNW 21 33 30.11 1020 10 16 0.00 0.00
2:53 pm 14:53 Sunny 46 7.8 13 -10.6 26 26 WNW 21 33 30.11 1020 10 16 0.00 0.00
3:53 pm 15:53 Sunny 44 6.7 16 -8.9 32 32 WNW 21 33 30.13 1020 10 16 0.00 0.00
4:53 pm 16:53 Sunny 43 6.1 16 -8.9 34 34 NW 17 28 30.15 1021 10 16 0.00 0.00
5:53 pm 17:53 Clear 36 2.2 17 -8.3 46 46 WNW 9 15 30.19 1023 10 16 0.00 0.00
6:53 pm 18:53 Clear 27 -2.8 15 -9.4 61 61 WSW 9 15 30.22 1023 10 16 0.00 0.00
7:53 pm 19:53 Clear 24 -4.4 16 -8.9 71 71 SW 6 9 30.24 1024 10 16 0.00 0.00
8:53 pm 20:53 Clear 24 -4.4 17 -8.3 75 75 SW 9 15 30.25 1025 10 16 0.00 0.00
9:53 pm 21:53 Clear 26 -3.3 18 -7.8 71 71 SW 9 15 30.25 1025 10 16 0.00 0.00
10:53 pm 22:53 Clear 26 -3.3 18 -7.8 71 71 SW 15 24 30.27 1025 10 16 0.00 0.00
11:53 pm 23:53 Clear 22 -5.6 16 -8.9 78 78 WNW 5 7 30.29 1026 10 16 0.00 0.00

Powered by AerisWeather